Regional Weather Roundup
Issued by NWS Newport/Morehead, NC

Current Version | Previous Version | Text Only | Print | Product List | Glossary On
Versions: 1 2 3 4 5 6 7 8 9 10 11 12 13 14 15 16 17 18 19 20 21 22 23 24 25 26 27 28 29 30 31 32 33 34 35 36 37 38 39 40 41 42 43 44 45 46 47 48 49 50
000
ASUS42 KMHX 252014
RWRMHX
WEATHER ROUNDUP FOR EASTERN NORTH CAROLINA
NATIONAL WEATHER SERVICE NEWPORT/MOREHEAD CITY NC
400 PM EDT TUE JUL 25 2017

NOTE: "FAIR" INDICATES FEW OR NO CLOUDS BELOW 12,000 FEET
WITH NO SIGNIFICANT WEATHER AND/OR OBSTRUCTIONS TO VISIBILITY

NCZ015>017-031-032-045>047-102-103-252100-
NORTH COAST

CITY           SKY/WX    TMP DP  RH WIND       PRES   REMARKS
EDENTON        CLOUDY    86  74  68 E8        30.07S
ELIZABETH CITY MOSUNNY   84  71  65 E10       30.07S
KITTY HAWK     PTCLDY    79  64  60 CALM      30.08R
MANTEO         MOSUNNY   81  65  59 NE12G17   30.09R

$$

NCZ045>047-081-094-103-104-252100-
CENTRAL COAST

CITY           SKY/WX    TMP DP  RH WIND       PRES   REMARKS
FRISCO         CLOUDY    81  73  76 NE9G17    30.06F

$$

NCZ095-097-098-100-101-252100-
SOUTHERN COAST

CITY           SKY/WX    TMP DP  RH WIND       PRES   REMARKS
BEAUFORT       MOSUNNY   86  80  82 SW12      30.05R HX 101
CEDAR ISLAND   NOT AVBL
JACKSONVILLE   MOSUNNY   84  76  76 S6        30.02F
PINEY ISLAND   CLOUDY   N/A N/A N/A E13       30.04S
WILMINGTON     MOSUNNY   88  76  67 SE7       30.03S


$$

NCZ011>013-027>030-043-044-078>080-089-090>093-098-252100-
COASTAL PLAIN

CITY           SKY/WX    TMP DP  RH WIND       PRES   REMARKS
AHOSKIE          N/A     85  72  64 NE5       30.06S
CLINTON        SUNNY     94  72  48 CALM      30.04S HX 101
ELIZABETHTOWN  NOT AVBL
GOLDSBORO      MOSUNNY   92  69  45 N5        30.03S
GREENVILLE     MOSUNNY   91  72  52 N7        30.06S
HAVELOCK       TSTM      78  73  84 S9G23     30.04S
KENANSVILLE    SUNNY     91  70  49 NW7       30.03F
KINSTON        MOSUNNY   91  70  49 N7        30.04S
NEW BERN       MOSUNNY   94  75  54 VRB6      30.04S HX 105
RICHLANDS      MOSUNNY   95  73  48 W6        30.03F HX 104
ROCKY MOUNT    PTSUNNY   88  73  61 E5        30.05S
WASHINGTON     PTSUNNY   87  76  69 NE7       30.05S
WHITEVILLE     PTSUNNY   91  74  58 CALM      30.03S HX 100

$$

AMZ130-135-150-152-154-156-158-170-250-252-270-ANZ085-086-088-633-658-670-252100-
MARINE OBSERVATIONS

STATION/POSITION TIME  TEMP    WIND        PRES    WAVE   SWELL
                       AIR SEA DIR/SP/G            HT/PER HT/PER
                 (UTC) (F)     (DEG/KT/KT) (MB)    (FT/S) (FT/S)
CHESAPEAKE LIGHT NOT AVBL
64 E VA BEACH    1950   76 78  350/ 12/ 14 1018.9    3/ 5   2/ 7
DUCK             1936   76 75   40/ 12/ 15 1018.4
2 E DUCK         2000      76                N/A     2/ 6
OREGON INLET     1936   76 71   20/ 12/ 15 1018.5
13E OREGON INLT  1948      73                N/A     3/ 4   2/ 6
HATTERAS CG      1936   80 79   40/  7/ 12 1018.2
DIAMOND BUOY     1950   80 84  360/ 10/ 12 1017.8    3/ 7   3/ 7
CAPE LOOKOUT     2000   84     220/  8/ 10 1017.1
BEAUFORT LAB     1936   84 82  200/ 10/ 13 1016.6
30 SE NEW RVR IN 1908   83 84  220/ 10/ 14 1017.7
30 SE NEW RVR IN 1943      84                N/A     3/ 6
27 SE WRIGHTSVLE 1908   83 84  200/ 10/ 16 1017.5
5 SE WRIGHTSVLE  1908   82 83  190/ 12/ 16 1017.2
225 S CAPE HAT   1950   83 83  220/ 12/ 14 1019.9    5/ 6   3/10
41 SE CHARLESTON 2000   81 83  230/ 10/ 12 1017.9

$$




USA.gov is the U.S. government's official web portal to all federal, state and local government web resources and services.